Precipitable_Water
0.90 0.91 0.78 0.78 0.87 0.75 0.68 0.82 0.84 0.77 0.77 0.81 0.81 0.87 0.90 0.94 0.91 0.95 0.94 0.96 0.99 1.01 1.03 1.06 1.10 1.13 1.16 1.16 1.13 1.10 1.06 1.07 1.13 1.16 1.20 1.22 1.20 1.18 1.12 1.08 1.07 1.07
0.93 0.90 0.81 0.75 0.75 0.82 0.81 0.83 0.85 0.81 0.81 0.81 0.87 0.90 0.93 0.93 0.93 0.94 0.93 0.92 0.95 0.96 1.00 1.02 1.04 1.07 1.12 1.10 1.12 1.10 1.08 1.07 1.06 1.18 1.25 1.19 1.17 1.08 1.03 1.03 1.05 1.09
0.93 0.89 0.88 0.83 0.83 0.90 0.90 0.84 0.78 0.83 0.85 0.91 0.90 0.90 0.91 0.96 0.97 0.94 0.91 0.92 0.94 0.97 0.99 1.03 1.06 1.08 1.09 1.13 1.08 1.04 1.03 1.09 1.09 1.11 1.11 1.09 1.04 1.03 1.06 1.08 1.12 1.12
1.05 0.97 0.88 0.84 0.81 0.78 0.78 0.76 0.81 0.87 0.92 0.94 0.97 1.00 0.97 0.92 0.90 0.95 0.97 0.98 0.97 1.00 1.01 1.01 1.05 1.12 1.08 1.02 1.02 1.02 1.00 1.02 1.17 1.26 1.18 1.11 1.07 1.06 1.06 1.11 1.13 1.12
1.11 1.04 0.93 0.85 0.87 0.85 0.84 0.81 0.79 0.80 0.87 0.95 0.92 0.96 0.98 0.98 0.99 1.00 0.98 0.99 1.03 1.01 1.02 1.02 1.03 1.04 1.08 1.07 1.03 0.97 1.02 1.08 1.17 1.19 1.14 1.07 1.07 1.05 1.06 1.08 1.05 1.04
1.09 1.02 0.95 0.92 0.87 0.85 0.80 0.80 0.86 0.90 0.90 0.92 1.04 1.05 0.99 0.97 0.93 0.92 0.96 0.96 0.97 1.00 0.97 0.97 0.98 1.01 0.99 1.00 1.11 1.10 1.04 1.07 1.14 1.13 1.12 1.09 1.05 1.07 1.09 1.05 1.00 0.96
1.12 1.08 0.95 0.92 0.91 0.89 0.85 0.86 0.88 0.94 1.01 1.04 1.04 1.00 1.01 1.00 0.95 0.95 0.95 0.92 0.90 0.91 0.95 0.97 0.99 0.98 1.03 1.09 1.14 1.11 1.09 1.13 1.13 1.09 1.11 1.10 1.04 1.05 1.08 1.03 0.98 0.89
1.21 1.19 1.06 1.00 0.95 0.96 0.94 0.92 0.94 0.99 1.03 1.04 1.00 1.10 1.14 1.06 0.95 0.91 0.87 0.87 0.89 0.86 0.89 0.96 1.00 1.08 1.15 1.12 1.10 1.18 1.18 1.09 1.02 1.08 1.11 1.06 1.03 1.02 1.03 1.01 0.97 0.90
1.22 1.14 1.03 1.00 0.98 1.00 0.98 0.97 0.98 1.00 1.04 1.01 1.03 0.99 1.06 1.08 1.06 1.06 1.01 0.94 0.90 0.92 0.93 0.91 0.93 0.99 1.09 1.14 1.16 1.13 1.08 1.06 1.08 1.09 1.09 1.01 0.99 1.01 1.01 1.01 0.95 0.91
1.17 1.09 1.03 1.01 1.02 1.03 0.97 0.94 0.92 0.91 0.98 1.00 1.04 1.07 1.03 0.99 1.01 1.02 1.00 0.96 0.91 0.86 0.87 0.95 0.99 1.01 0.99 1.07 1.12 1.06 1.03 1.04 1.06 1.10 1.14 1.11 1.09 1.08 1.03 0.99 0.97 0.94
1.15 1.08 1.01 1.00 0.99 1.00 0.98 0.96 0.96 0.96 0.99 0.98 0.94 0.92 0.96 1.00 1.04 1.05 1.00 0.92 0.91 0.91 0.91 0.90 0.93 0.98 1.00 1.05 1.04 0.99 0.92 0.90 0.95 1.07 1.09 1.14 1.15 1.07 1.04 1.03 1.02 0.97
1.11 1.00 1.00 1.07 1.09 1.05 1.00 0.94 0.90 0.87 0.88 0.94 0.96 0.98 1.03 1.01 0.93 0.94 0.96 0.96 0.96 0.94 0.93 0.95 0.98 1.06 1.10 1.14 1.17 1.12 1.03 1.00 1.02 1.03 1.06 1.12 1.11 1.03 1.00 1.02 1.05 1.03
1.09 1.00 1.01 1.07 1.08 1.03 0.97 0.92 0.93 0.95 0.96 0.94 0.85 0.84 0.91 0.96 0.95 0.94 0.98 0.96 0.92 0.92 0.92 0.94 0.96 1.01 1.12 1.21 1.30 1.38 1.34 1.25 1.20 1.19 1.18 1.18 1.08 0.99 1.02 1.05 1.06 1.01
1.11 1.06 1.10 1.11 1.06 1.01 1.00 0.99 0.95 0.95 0.96 0.96 0.97 0.96 0.99 1.01 0.98 0.94 0.93 0.90 0.89 0.90 0.93 0.94 0.97 1.01 1.12 1.25 1.30 1.32 1.24 1.15 1.11 1.09 1.15 1.18 1.11 1.12 1.14 1.10 1.04 0.99
1.09 1.05 1.14 1.14 1.05 0.98 0.94 0.92 0.93 0.97 0.98 0.97 1.00 1.03 1.03 1.03 1.01 0.97 0.93 0.88 0.87 0.89 0.92 0.99 1.02 1.14 1.24 1.25 1.25 1.17 1.15 1.11 1.11 1.12 1.18 1.16 1.06 1.02 1.01 0.96 0.96 0.97
1.01 1.03 1.09 1.07 1.03 0.97 0.93 0.92 0.94 0.97 0.95 0.95 0.97 1.00 1.02 1.00 0.98 0.95 0.88 0.84 0.87 0.94 0.98 1.00 1.11 1.20 1.25 1.29 1.22 1.17 1.08 1.11 1.13 1.09 1.03 0.99 0.95 0.92 0.91 0.91 0.94 0.96
1.03 1.02 1.06 1.04 0.99 0.93 0.89 0.89 0.90 0.91 0.91 0.92 0.95 0.99 1.02 1.03 0.99 0.94 0.88 0.84 0.84 0.85 0.89 1.00 1.01 1.03 1.03 1.09 1.09 1.09 1.06 1.02 0.96 0.94 0.92 0.90 0.87 0.82 0.83 0.88 0.95 0.99
1.08 1.09 1.09 1.03 0.98 0.93 0.88 0.87 0.87 0.89 0.91 0.93 0.97 1.01 1.07 1.07 0.97 0.93 0.90 0.86 0.82 0.84 0.92 0.94 0.96 0.96 0.94 0.94 0.97 1.03 1.06 1.06 1.05 1.00 0.97 0.94 0.91 0.85 0.81 0.84 0.90 0.99
1.09 1.09 1.04 0.98 0.94 0.90 0.87 0.86 0.86 0.89 0.95 0.99 1.01 1.06 1.08 1.01 0.94 0.90 0.89 0.91 0.90 0.89 0.91 0.93 0.92 0.93 0.95 0.97 1.00 1.05 1.07 1.08 1.07 1.04 1.01 1.01 1.00 0.93 0.87 0.85 0.91 1.07
1.05 0.99 0.95 0.90 0.89 0.87 0.86 0.85 0.89 0.97 1.05 1.07 1.05 1.07 1.05 0.97 0.93 0.89 0.87 0.87 0.89 0.96 0.97 0.95 0.94 0.95 0.95 0.98 1.03 1.05 1.08 1.10 1.06 1.03 1.03 1.05 1.07 1.04 0.96 0.88 0.94 1.00
0.98 0.92 0.86 0.86 0.85 0.85 0.83 0.86 0.94 1.02 1.01 0.99 1.01 1.04 1.04 0.99 0.91 0.88 0.93 0.92 0.95 0.97 0.97 0.96 0.98 1.03 1.00 1.04 1.05 1.05 1.04 1.06 1.07 1.06 1.05 1.07 1.08 1.06 1.03 0.90 0.89 0.98
0.88 0.83 0.79 0.80 0.82 0.82 0.81 0.86 0.95 1.00 1.01 1.02 1.01 1.10 1.16 1.04 0.90 0.90 0.93 0.98 0.99 0.96 0.92 0.94 1.01 1.03 1.04 1.04 1.03 1.03 1.01 0.99 1.01 1.03 1.05 1.05 1.04 1.01 0.94 0.93 0.95 0.98
0.80 0.77 0.78 0.80 0.83 0.85 0.87 0.91 0.98 1.04 0.96 0.91 0.93 1.01 1.01 0.92 0.90 0.94 1.00 1.02 0.98 0.96 0.99 1.00 1.02 1.04 1.01 1.00 1.03 1.04 0.97 0.95 0.97 1.01 1.04 1.05 1.03 0.99 0.95 0.90 0.93 1.01
0.79 0.80 0.80 0.82 0.87 0.89 0.91 0.96 1.03 1.04 0.98 0.97 0.91 0.93 0.96 0.97 0.96 1.02 1.06 1.08 1.05 1.01 0.99 0.95 0.96 1.00 1.03 1.04 1.07 1.01 0.97 0.95 0.97 1.01 1.04 1.04 0.98 0.96 0.93 0.88 0.95 1.05
0.83 0.84 0.83 0.86 0.90 0.93 0.93 0.93 0.95 0.94 0.94 0.91 0.96 1.02 0.97 0.90 0.93 0.97 1.05 1.11 1.12 1.04 0.96 0.96 1.01 1.07 1.10 1.09 1.04 1.00 0.99 0.99 1.03 1.06 1.05 1.03 0.99 0.97 0.95 0.93 0.96 0.99
0.83 0.86 0.90 0.91 0.93 0.95 0.98 0.98 0.96 0.99 0.96 0.95 0.98 1.00 0.98 0.91 0.92 1.03 1.02 1.04 1.10 1.06 1.00 1.01 1.05 1.11 1.16 1.06 1.01 1.01 1.00 1.01 1.05 1.03 1.02 1.02 1.01 1.00 0.97 0.97 0.99 0.99
Wind_Speed
16 16 17 17 17 17 18 18 18 18 19 19 20 20 21 21 21 21 21 22 22 22 22 22 22 22 22 22 23 23 24 24 24 24 24 24 24 25 25 26 25 25
16 16 17 18 18 18 18 18 19 19 20 20 21 21 21 21 21 21 22 22 22 22 22 23 23 23 22 23 23 24 24 24 24 24 24 24 25 25 26 26 26 26
17 17 18 18 19 19 19 20 20 21 21 21 22 22 22 22 22 22 22 23 23 23 23 23 23 23 23 23 23 24 24 25 25 25 25 25 26 26 27 26 26 26
17 18 19 19 20 20 21 21 21 21 22 22 22 22 22 22 23 23 23 23 23 23 23 23 23 24 24 24 24 24 25 25 25 26 26 26 27 27 27 26 26 27
18 19 20 21 21 21 21 22 22 22 22 22 23 22 23 23 23 23 24 24 24 24 24 24 24 24 24 24 25 25 26 26 26 26 27 28 28 28 28 27 27 28
19 20 21 22 22 22 22 22 22 23 23 23 23 23 23 23 24 24 24 24 24 24 24 25 25 25 25 25 26 27 27 27 27 28 28 29 29 29 28 28 29 30
20 20 22 22 23 23 23 23 23 23 23 24 24 24 24 24 24 24 24 25 25 25 25 26 26 26 26 27 27 27 28 28 28 29 29 30 30 29 29 29 30 31
20 21 22 23 23 23 23 24 24 24 24 24 24 24 24 24 25 25 24 24 25 26 26 26 27 27 28 28 28 28 28 29 30 30 30 30 30 29 30 30 31 32
20 22 23 23 23 24 24 24 25 25 25 25 24 24 24 24 25 25 25 25 26 27 27 27 27 28 28 29 28 29 29 30 31 30 30 30 29 30 30 31 32 32
21 22 23 24 24 24 25 25 25 25 25 24 24 25 25 25 25 25 25 26 27 27 27 28 28 28 29 29 29 30 30 31 31 31 30 30 29 30 31 31 32 31
21 22 24 24 24 24 25 25 25 25 24 24 25 26 26 26 26 26 26 27 27 28 28 28 29 29 29 29 30 30 31 31 31 30 30 30 30 31 32 31 30 30
21 23 24 24 24 24 25 25 25 25 25 25 26 26 26 26 26 27 27 27 27 28 28 28 29 30 30 31 31 31 31 31 31 30 30 29 30 31 31 30 29 28
22 23 23 24 24 24 25 25 25 25 25 26 26 27 27 27 27 27 27 27 28 28 28 28 29 30 31 31 30 30 30 30 30 30 30 30 31 31 30 29 28 28
22 23 23 24 24 25 25 25 25 25 25 26 27 27 27 27 27 27 27 28 28 28 28 28 30 30 30 29 29 29 29 30 30 30 30 31 32 31 30 29 29 28
22 23 23 24 25 25 25 25 25 25 26 27 27 27 27 27 27 27 28 28 28 28 28 29 29 29 28 28 28 28 29 30 30 29 29 31 31 30 30 29 29 29
23 23 23 24 25 25 25 25 25 26 26 27 27 27 27 27 27 28 28 28 28 28 28 28 27 27 28 28 28 28 29 29 29 28 29 31 30 29 29 29 29 28
23 23 24 25 25 25 26 25 26 26 27 27 27 27 27 27 28 28 28 27 27 28 28 28 28 28 29 29 29 29 29 29 29 29 30 30 29 29 29 29 29 28
23 24 25 25 25 26 26 26 27 27 28 28 27 27 27 27 28 28 28 27 28 28 28 28 29 30 29 30 30 30 30 30 30 30 30 29 28 28 28 28 28 27
23 24 25 26 26 26 26 27 28 28 28 28 27 27 27 28 28 28 28 28 28 28 28 29 30 30 30 30 31 30 30 30 30 30 30 29 28 27 27 27 26 26
24 25 26 26 26 26 27 27 28 28 27 28 28 28 28 29 29 29 29 29 29 28 29 30 30 30 30 31 31 30 30 30 30 30 29 28 27 26 26 26 25 25
24 25 26 27 27 27 27 28 27 27 28 29 29 29 29 29 29 30 30 30 29 28 30 31 30 30 30 30 30 30 31 30 30 29 28 27 25 24 25 25 25 25
25 26 26 26 27 27 27 27 27 27 28 28 29 29 29 30 30 30 30 30 29 29 30 30 29 29 29 29 29 30 31 30 29 28 27 25 24 23 24 24 25 25
26 26 26 27 27 27 27 27 27 27 28 29 29 29 30 31 31 31 31 29 29 30 30 30 30 30 29 28 29 30 30 29 28 27 25 24 23 23 23 24 24 24
26 26 26 27 27 26 27 28 28 28 29 30 30 29 29 31 31 31 30 29 29 30 30 31 31 29 27 27 28 29 29 28 26 25 24 23 22 22 22 23 23 24
26 27 27 27 26 27 28 29 29 29 30 31 31 30 30 31 31 31 30 29 29 29 30 31 30 28 26 26 27 27 28 27 25 23 22 22 21 21 22 23 23 23
27 27 27 27 27 28 29 29 29 30 31 31 31 31 31 32 31 30 30 29 29 29 30 30 29 27 26 26 26 27 27 25 23 21 21 21 20 21 22 22 22 22
Wind_Direction
323 323 323 321 318 317 317 316 315 314 314 313 312 312 311 312 312 313 313 313 313 313 313 313 313 313 314 314 314 314 315 315 315 315 315 314 313 312 311 310 308 307
320 321 322 322 320 318 317 315 314 313 313 312 312 311 311 312 312 311 311 311 312 312 312 312 312 312 312 312 313 313 314 314 314 315 314 313 313 311 310 309 308 307
316 318 320 320 319 318 316 315 314 313 313 312 312 312 311 311 310 310 310 310 310 310 310 310 310 311 311 311 312 312 313 313 312 313 313 312 312 311 310 308 307 307
312 316 318 318 318 317 316 315 314 313 312 312 312 312 311 311 310 310 310 309 309 308 309 309 308 309 309 310 311 311 312 312 311 311 311 311 311 310 309 307 306 306
310 313 316 316 316 315 315 315 314 312 311 311 311 311 311 311 310 310 310 309 308 308 307 307 307 308 308 309 310 311 311 311 310 310 309 309 310 309 307 306 305 305
308 310 313 314 315 315 314 314 313 311 311 311 311 311 310 310 310 310 309 308 308 307 306 307 307 307 308 309 309 310 310 310 309 309 308 308 308 307 306 305 305 305
304 307 311 312 313 314 314 313 312 311 312 311 311 311 311 311 310 309 309 308 307 306 306 306 306 307 308 308 308 308 309 309 309 308 307 307 307 306 305 305 304 305
301 304 309 311 311 312 312 312 311 311 311 311 312 312 311 310 310 309 309 308 307 306 306 306 306 306 306 307 307 307 308 309 309 307 306 306 306 305 305 305 305 305
298 302 307 309 309 310 311 311 311 311 310 310 312 313 312 311 310 309 308 308 308 307 306 306 306 306 307 306 306 307 307 308 308 306 305 304 304 304 304 305 306 305
297 301 305 307 307 309 310 310 310 311 312 312 313 314 313 312 311 309 308 308 308 307 306 306 306 306 307 307 306 306 307 307 307 306 304 303 303 303 304 304 305 304
296 301 303 305 307 309 309 309 310 311 313 314 314 314 313 312 310 309 309 308 308 307 306 306 306 306 306 306 305 305 305 306 306 304 302 302 302 304 304 303 304 303
294 301 303 304 305 307 308 309 309 309 310 312 314 313 312 311 310 309 309 309 308 308 307 306 306 307 306 306 306 305 305 306 305 303 301 300 302 304 303 302 301 301
294 300 302 303 306 307 308 308 308 309 310 312 313 313 311 310 310 310 310 310 310 309 308 307 308 308 307 307 307 306 306 305 305 304 302 301 303 304 302 300 300 299
295 300 301 303 305 307 307 307 307 308 309 311 311 311 311 310 310 311 311 311 311 310 309 308 309 308 308 308 308 307 306 306 305 304 302 301 303 303 300 299 298 297
296 300 300 302 305 306 306 305 306 307 308 309 310 310 311 311 311 311 311 311 311 310 310 309 310 310 309 309 309 308 307 306 305 304 303 303 303 302 300 299 298 297
295 297 298 301 304 304 304 304 305 306 307 308 309 309 310 311 311 311 311 311 311 310 311 311 311 311 311 309 308 309 310 308 306 305 305 305 304 302 300 299 297 296
293 294 296 300 302 302 303 303 304 306 306 307 308 309 310 311 312 311 311 311 311 311 311 310 309 309 309 307 307 308 309 309 308 307 307 307 304 303 301 299 298 296
291 293 296 299 300 301 302 303 304 305 305 306 307 308 310 311 311 311 310 310 311 310 308 308 309 309 308 307 307 307 307 307 308 308 308 307 304 303 303 302 299 297
291 293 296 298 299 300 301 302 303 304 304 305 307 308 310 310 309 310 310 310 310 308 307 308 309 309 307 307 307 307 306 306 307 307 307 306 303 303 305 305 302 301
291 293 295 297 299 300 301 301 302 303 304 305 306 307 308 309 309 309 310 309 308 307 307 309 309 308 308 308 308 308 307 306 307 306 306 304 302 302 304 305 305 304
291 292 294 296 298 300 300 300 301 302 303 304 305 306 307 308 308 309 308 308 307 307 307 309 309 308 308 308 309 309 309 308 307 306 305 303 300 301 304 305 307 307
290 292 294 295 297 298 299 300 300 300 303 305 305 304 306 307 307 307 306 306 306 307 308 308 308 308 308 308 309 310 311 310 307 306 305 302 299 301 304 307 308 309
290 292 294 295 296 297 298 300 299 299 302 305 305 303 303 304 306 306 305 305 306 308 308 308 308 308 307 307 309 311 313 311 308 306 303 300 299 301 305 308 310 310
291 292 294 296 296 296 299 300 299 299 302 305 304 302 302 304 305 305 304 304 305 307 307 307 307 307 306 306 309 313 316 314 310 306 302 299 299 301 304 308 312 313
292 292 293 295 295 296 298 299 299 300 302 303 303 302 303 304 305 303 303 303 302 305 307 307 307 306 304 305 309 313 316 315 311 307 303 301 300 301 304 307 310 313
292 292 292 293 294 295 297 299 299 300 301 302 303 303 303 304 304 303 302 302 301 304 306 307 307 304 302 304 308 312 315 314 312 308 305 303 302 302 304 306 309 313